Ahmedabad, India

10:20 PM IST on October 19, 2017 (GMT +0530)
Ahmedabad

Weather History for VAAH - January, 2013

Change the Weather History Date:

Monday, January 21, 2013

  Actual Average Record
Temperature  
Mean Temperature 64 °F -  
Max Temperature 76 °F 83 °F 91 °F (2011)
Min Temperature 52 °F 56 °F 44 °F (1997)
Degree Days  
Heating Degree Days 1    
Growing Degree Days 14 (Base 50)    
Moisture  
Dew Point 36 °F    
Average Humidity 38    
Maximum Humidity 58    
Minimum Humidity 16    
Precipitation  
Precipitation 0.00 in 0.00 in - ()
Sea Level Pressure  
Sea Level Pressure 30.07 in    
Wind  
Wind Speed 7 mph ()    
Max Wind Speed 12 mph    
Max Gust Speed -    
Visibility 2.7 miles    
Events      
Averages and records for this station are not official NWS values.
T = Trace of Precipitation, MM = Missing Value Source: Averaged Metar Reports

Daily Weather History Graph

Daily Weather History Graph

Search for Another Location

Airport or City:

Trip Planner

Search our weather history database for the weather conditions in past years. The results will help you decide how hot, cold, wet, or windy it might be!

Date:

Astronomy

Jan. 21, 2013 Rise Set
Actual Time 7:22 AM IST 6:19 PM IST
Civil Twilight 6:58 AM IST 6:43 PM IST
Nautical Twilight 6:30 AM IST 7:10 PM IST
Astronomical Twilight 6:03 AM IST 7:37 PM IST
Moon 1:42 PM IST (1/21) 2:26 AM IST (1/21)
Length of Visible Light 11h 45m
Length of Day
10h 57m
Waxing Gibbous, 71% of the Moon is Illuminated
Jan 21
Waxing Gibbous
Jan 27
Full
Feb 3
Last Quarter
Feb 10
New
Feb 18
First Quarter

Hourly Weather History & Observations

Time (IST) Temp. Dew Point Humidity Pressure Visibility Wind Dir Wind Speed Gust Speed Precip Events Conditions
12:10 AM 57.2 °F 37.4 °F 48% 30.06 in 2.5 mi ENE 6.9 mph - N/A   Smoke
12:40 AM 57.2 °F 37.4 °F 48% 30.04 in 2.5 mi ENE 6.9 mph - N/A   Smoke
1:10 AM 55.4 °F 37.4 °F 51% 30.04 in 2.5 mi NE 5.8 mph - N/A   Smoke
1:40 AM 55.4 °F 35.6 °F 47% 30.04 in 2.5 mi ENE 6.9 mph - N/A   Smoke
2:10 AM 55.4 °F 35.6 °F 47% 30.04 in 2.5 mi ENE 9.2 mph - N/A   Smoke
2:30 AM 59 °F 40 °F 38% 30.08 in 1 mi NE 6.9 mph - -   Haze
3:10 AM 55.4 °F 35.6 °F 47% 30.04 in 2.5 mi ENE 8.1 mph - N/A   Smoke
3:40 AM 55.4 °F 37.4 °F 51% 30.04 in 2.5 mi NE 6.9 mph - N/A   Smoke
4:10 AM 55.4 °F 37.4 °F 51% 30.04 in 2.5 mi East 9.2 mph - N/A   Smoke
4:40 AM 53.6 °F 35.6 °F 51% 30.04 in 2.5 mi NE 8.1 mph - N/A   Smoke
5:10 AM 53.6 °F 37.4 °F 54% 30.04 in 2.5 mi NE 9.2 mph - N/A   Smoke
5:30 AM 56 °F 41 °F 45% 30.09 in 1 mi East 5.8 mph - -   Haze
5:40 AM 51.8 °F 37.4 °F 58% 30.06 in 2.5 mi NE 6.9 mph - N/A   Smoke
6:10 AM 51.8 °F 37.4 °F 58% 30.06 in 2.5 mi NE 6.9 mph - N/A   Smoke
6:40 AM 51.8 °F 37.4 °F 58% 30.09 in 2.5 mi NE 9.2 mph - N/A   Smoke
7:10 AM 51.8 °F 35.6 °F 54% 30.09 in 2.5 mi NE 9.2 mph - N/A   Smoke
7:40 AM 53.6 °F 35.6 °F 51% 30.12 in 2.5 mi NE 9.2 mph - N/A   Smoke
8:10 AM 53.6 °F 35.6 °F 51% 30.12 in 2.5 mi NE 9.2 mph - N/A   Smoke
8:30 AM 58 °F 39 °F 37% 30.17 in 2 mi NE 3.5 mph - -  
8:40 AM 57.2 °F 35.6 °F 44% 30.15 in 2.5 mi ENE 9.2 mph - N/A   Smoke
9:10 AM 59.0 °F 35.6 °F 42% 30.15 in 2.5 mi ENE 10.4 mph - N/A   Smoke
9:40 AM 62.6 °F 35.6 °F 37% 30.15 in 2.5 mi ENE 10.4 mph - N/A   Smoke
10:40 AM 68.0 °F 35.6 °F 30% 30.15 in 3.1 mi ENE 10.4 mph - N/A   Smoke
11:10 AM 68.0 °F 35.6 °F 30% 30.15 in 3.1 mi East 10.4 mph - N/A   Smoke
11:30 AM 71 °F 40 °F 21% 30.17 in 2 mi East 4.6 mph - -  
11:40 AM 69.8 °F 35.6 °F 28% 30.15 in 3.1 mi East 11.5 mph - N/A   Smoke
12:10 PM 71.6 °F 37.4 °F 29% 30.12 in 3.1 mi ENE 11.5 mph - N/A   Smoke
12:40 PM 73.4 °F 35.6 °F 25% 30.09 in 3.1 mi East 10.4 mph - N/A   Smoke
1:10 PM 73.4 °F 35.6 °F 25% 30.09 in 3.7 mi East 9.2 mph - N/A   Unknown
1:40 PM 73.4 °F 33.8 °F 23% 30.06 in 3.7 mi ENE 11.5 mph - N/A   Unknown
2:10 PM 75.2 °F 33.8 °F 22% 30.04 in 3.7 mi ENE 10.4 mph - N/A   Unknown
2:30 PM 75 °F 38 °F 17% 30.09 in 2 mi East 5.8 mph - -  
2:40 PM 75.2 °F 33.8 °F 22% 30.04 in 3.7 mi East 10.4 mph - N/A   Unknown
3:10 PM 75.2 °F 33.8 °F 22% 30.01 in 3.7 mi ENE 10.4 mph - N/A   Unknown
3:40 PM 77.0 °F 33.8 °F 21% 30.01 in 3.7 mi East 10.4 mph - N/A   Unknown
4:10 PM 77.0 °F 33.8 °F 21% 30.01 in 3.7 mi NE 11.5 mph - N/A   Unknown
4:40 PM 75.2 °F 33.8 °F 22% 30.01 in 3.7 mi ENE 10.4 mph - N/A   Unknown
5:10 PM 75.2 °F 33.8 °F 22% 30.01 in 3.7 mi ENE 10.4 mph - N/A   Unknown
5:30 PM 74 °F 37 °F 16% 30.05 in 2 mi NE 3.5 mph - -  
5:40 PM 73.4 °F 33.8 °F 23% 30.01 in 3.7 mi ENE 9.2 mph - N/A   Unknown
6:40 PM 68.0 °F 33.8 °F 28% 30.01 in 2.5 mi ENE 6.9 mph - N/A   Smoke
7:10 PM 66.2 °F 33.8 °F 30% 30.01 in 2.5 mi ENE 5.8 mph - N/A   Smoke
7:40 PM 64.4 °F 33.8 °F 32% 30.04 in 2.5 mi ENE 8.1 mph - N/A   Smoke
8:10 PM 62.6 °F 35.6 °F 37% 30.04 in 2.5 mi NE 8.1 mph - N/A   Smoke
8:30 PM 65 °F 40 °F 28% 30.08 in 2 mi NE 3.5 mph - -  
8:40 PM 59.0 °F 35.6 °F 42% 30.04 in 2.5 mi NE 6.9 mph - N/A   Smoke
9:10 PM 60.8 °F 35.6 °F 39% 30.04 in 2.5 mi NE 4.6 mph - N/A   Smoke
10:10 PM 57.2 °F 37.4 °F 48% 30.06 in 2.5 mi ENE 6.9 mph - N/A   Smoke
10:40 PM 57.2 °F 37.4 °F 48% 30.06 in 2.5 mi NE 5.8 mph - N/A   Smoke
11:10 PM 55.4 °F 37.4 °F 51% 30.06 in 2.5 mi NE 5.8 mph - N/A   Smoke
11:30 PM 58 °F 43 °F 47% 30.09 in 2 mi North 3.5 mph - -   Smoke
11:40 PM 59.0 °F 35.6 °F 42% 30.04 in 2.5 mi ENE 6.9 mph - N/A   Smoke